Great Falls, MT

8:50 PM MDT on July 29, 2016 (GMT -0600)
Malmstrom AFB

Weather History for KGFA - March, 2014

Change the Weather History Date:

Sunday, March 23, 2014

  Actual Average (KGTF) Record (KGTF)
Temperature  
Mean Temperature 22 °F 36 °F  
Max Temperature 28 °F 48 °F 74 °F (1993)
Min Temperature 17 °F 25 °F -15 °F (1964)
Degree Days  
Heating Degree Days 42 29  
Month to date heating degree days 736  
Since 1 July heating degree days 6241  
Cooling Degree Days 0 0  
Month to date cooling degree days 0  
Year to date cooling degree days 0  
Moisture  
Dew Point 16 °F    
Average Humidity 82    
Maximum Humidity 93    
Minimum Humidity 63    
Precipitation  
Precipitation 0.03 in 0.03 in 0.60 in (1920)
Month to date precipitation 0.62  
Year to date precipitation 1.60  
Snow  
Snow 0.00 in 0.40 in 7.30 in (1996)
Month to date snowfall 8.8  
Since 1 July snowfall 48.8  
Snow Depth -    
Sea Level Pressure  
Sea Level Pressure 30.29 in    
Wind  
Wind Speed 6 mph (NNW)    
Max Wind Speed 13 mph    
Max Gust Speed -    
Visibility 5 miles    
Events Fog , Snow    
T = Trace of Precipitation, MM = Missing Value Source: NWS Daily Summary

Daily Weather History Graph

Daily Weather History Graph

Search for Another Location

Airport or City:

Trip Planner

Search our weather history database for the weather conditions in past years. The results will help you decide how hot, cold, wet, or windy it might be!

Date:

Astronomy

Mar. 23, 2014 Rise Set
Actual Time 7:21 AM MDT 7:41 PM MDT
Civil Twilight 6:50 AM MDT 8:12 PM MDT
Nautical Twilight 6:14 AM MDT 8:49 PM MDT
Astronomical Twilight 5:36 AM MDT 9:26 PM MDT
Moon 2:22 AM MDT (3/23) 11:46 AM MDT (3/23)
Length of Visible Light 13h 21m
Length of Day
12h 20m
Waning Gibbous, 54% of the Moon is Illuminated
Mar 23
Waning Gibbous
Mar 23
Last Quarter
Mar 30
New
Apr 7
First Quarter
Apr 15
Full

Hourly Weather History & Observations

Time (MDT) Temp. Windchill Dew Point Humidity Pressure Visibility Wind Dir Wind Speed Gust Speed Precip Events Conditions
12:56 AM 18.0 °F 9.8 °F 12.9 °F 81% 30.34 in 10.0 mi NNE 5.8 mph - N/A   Overcast
1:56 AM 19.0 °F 11.1 °F 14.0 °F 81% 30.31 in 10.0 mi North 5.8 mph - N/A   Overcast
2:56 AM 19.0 °F - 15.1 °F 85% 30.29 in 10.0 mi Calm Calm - N/A   Overcast
3:56 AM 19.9 °F 13.4 °F 14.0 °F 78% 30.28 in 10.0 mi West 4.6 mph - N/A   Overcast
4:35 AM 19.4 °F 14.3 °F 15.8 °F 86% 30.03 in 10.0 mi NNW 3.5 mph - N/A   Overcast
4:56 AM 19.9 °F - 15.1 °F 81% 30.26 in 10.0 mi Calm Calm - N/A   Overcast
5:56 AM 19.9 °F 13.4 °F 15.1 °F 81% 30.27 in 10.0 mi NNW 4.6 mph - N/A   Overcast
6:47 AM 19.4 °F 9.5 °F 14.0 °F 80% 30.04 in 10.0 mi North 8.1 mph - N/A   Overcast
6:56 AM 19.0 °F 10.0 °F 14.0 °F 81% 30.30 in 10.0 mi North 6.9 mph - N/A   Overcast
7:51 AM 19.4 °F 7.2 °F 14.0 °F 80% 30.08 in 10.0 mi NNW 11.5 mph - N/A   Overcast
7:56 AM 18.0 °F 5.4 °F 14.0 °F 84% 30.36 in 10.0 mi NNW 11.5 mph - N/A   Overcast
8:31 AM 17.6 °F 6.4 °F 14.0 °F 86% 30.10 in 1.8 mi North 9.2 mph - 0.00 in Snow Light Snow
8:56 AM 18.0 °F 6.9 °F 14.0 °F 84% 30.39 in 1.0 mi North 9.2 mph - 0.00 in Snow Light Snow
9:04 AM 17.6 °F 7.3 °F 14.0 °F 86% 30.12 in 0.8 mi NNW 8.1 mph - 0.00 in Snow Light Snow
9:17 AM 17.6 °F 8.2 °F 14.0 °F 86% 30.13 in 1.0 mi NW 6.9 mph - 0.00 in Snow Light Snow
9:34 AM 17.6 °F 9.3 °F 14.0 °F 86% 30.14 in 2.5 mi NW 5.8 mph - 0.00 in Snow Light Snow
9:41 AM 17.6 °F 8.2 °F 12.2 °F 79% 30.14 in 1.8 mi NW 6.9 mph - 0.00 in Snow Light Snow
9:56 AM 19.0 °F 11.1 °F 14.0 °F 81% 30.42 in 1.2 mi WNW 5.8 mph - 0.00 in Snow Light Snow
10:25 AM 19.4 °F 12.8 °F 15.8 °F 86% 30.16 in 0.8 mi NW 4.6 mph - 0.01 in Snow Light Snow
10:56 AM 19.9 °F - 15.1 °F 81% 30.44 in 0.8 mi Calm Calm - 0.01 in Snow Light Snow
11:00 AM 19.4 °F 14.3 °F 15.8 °F 86% 30.18 in 1.0 mi WNW 3.5 mph - 0.00 in Snow Light Snow
11:16 AM 19.4 °F 11.5 °F 15.8 °F 86% 30.18 in 1.0 mi WSW 5.8 mph - 0.00 in Snow Light Snow
11:25 AM 19.4 °F 11.5 °F 15.8 °F 86% 30.18 in 1.0 mi WSW 5.8 mph - 0.00 in Snow Light Snow
11:36 AM 19.4 °F 11.5 °F 15.8 °F 86% 30.19 in 3.0 mi West 5.8 mph - 0.00 in Snow Light Snow
11:56 AM 21.0 °F 13.4 °F 15.1 °F 78% 30.45 in 2.0 mi WSW 5.8 mph - 0.00 in Snow Light Snow
12:06 PM 21.2 °F 14.9 °F 15.8 °F 80% 30.19 in 1.8 mi WSW 4.6 mph - 0.00 in Snow Light Snow
12:17 PM 21.2 °F 13.6 °F 14.0 °F 74% 30.19 in 2.0 mi WSW 5.8 mph - 0.00 in Snow Light Snow
12:52 PM 21.2 °F 14.9 °F 15.8 °F 80% 30.20 in 5.0 mi WSW 4.6 mph - 0.00 in Snow Light Snow
12:56 PM 21.9 °F 13.4 °F 15.1 °F 75% 30.46 in 9.0 mi West 6.9 mph - 0.00 in   Overcast
1:56 PM 24.1 °F - 16.0 °F 71% 30.44 in 9.0 mi Calm Calm - N/A   Overcast
2:56 PM 25.0 °F 19.3 °F 16.0 °F 69% 30.42 in 10.0 mi NW 4.6 mph - N/A   Overcast
3:56 PM 26.1 °F 21.9 °F 17.1 °F 69% 30.41 in 10.0 mi WNW 3.5 mph - N/A   Overcast
4:56 PM 28.0 °F 24.2 °F 17.1 °F 63% 30.40 in 10.0 mi Variable 3.5 mph - N/A   Overcast
5:56 PM 27.0 °F - 17.1 °F 66% 30.40 in 10.0 mi Calm Calm - N/A   Overcast
6:56 PM 26.1 °F 17.6 °F 17.1 °F 69% 30.43 in 10.0 mi North 8.1 mph - N/A   Overcast
7:56 PM 25.0 °F 16.3 °F 18.0 °F 75% 30.45 in 10.0 mi NNE 8.1 mph - N/A   Overcast
8:56 PM 23.0 °F 11.1 °F 17.1 °F 78% 30.48 in 10.0 mi NNE 12.7 mph - N/A   Overcast
9:49 PM 21.2 °F 9.5 °F 17.6 °F 86% 30.24 in 2.0 mi NNE 11.5 mph - 0.00 in Snow Light Snow
9:56 PM 21.0 °F 9.9 °F 18.0 °F 88% 30.51 in 3.0 mi NNE 10.4 mph - 0.00 in Snow Light Snow
10:28 PM 21.2 °F 10.9 °F 17.6 °F 86% 30.26 in 1.8 mi NNE 9.2 mph - 0.00 in Snow Light Snow
10:33 PM 21.2 °F 10.9 °F 17.6 °F 86% 30.26 in 0.8 mi NNE 9.2 mph - 0.00 in Snow Light Snow
10:42 PM 21.2 °F 11.7 °F 17.6 °F 86% 30.26 in 0.5 mi NNE 8.1 mph - 0.01 in Fog , Snow Snow
10:56 PM 19.9 °F 10.1 °F 17.1 °F 89% 30.53 in 1.0 mi NNE 8.1 mph - 0.02 in Snow Light Snow
11:09 PM 19.4 °F 11.5 °F 17.6 °F 93% 30.27 in 2.5 mi NNE 5.8 mph - 0.00 in Snow Light Snow
11:16 PM 19.4 °F 11.5 °F 17.6 °F 93% 30.27 in 3.0 mi North 5.8 mph - 0.00 in Snow Light Snow
11:26 PM 19.4 °F 10.4 °F 17.6 °F 93% 30.28 in 4.0 mi North 6.9 mph - 0.00 in Snow Light Snow
11:56 PM 19.9 °F 10.1 °F 17.1 °F 89% 30.55 in 6.0 mi North 8.1 mph - 0.00 in Snow Light Snow